Preview of NWS' New Version of Forecast
This preview is not operational and should not be used for support decisions.

Regional Weather Roundup (RWR)

Issued by National Weather Service (NWS)

                            
000
ASUS44 KMEG 241300
RWRTN 
TENNESSEE HOURLY STATE WEATHER ROUNDUP
NATIONAL WEATHER SERVICE MEMPHIS TN
800 AM CDT SUN MAR 24 2019

TNZ002-004-019-021-049-052-054-088>092-241400-
WEST TENNESSEE
  
CITY           SKY/WX    TMP DP  RH WIND       PRES   REMARKS
MEMPHIS INTL   CLOUDY    56  48  74 S6        30.18R                  
NWS MEMPHIS      N/A     54 N/A N/A MISG        N/A                   
JACKSON        LGT RAIN  50  44  80 SW8       30.19R                  
DYERSBURG      LGT RAIN  50  47  89 SW5       30.18R                  
$$

TNZ008-025-027-028-033-062-065-066-241400-
NORTH MIDDLE TENNESSEE
  
CITY           SKY/WX    TMP DP  RH WIND       PRES   REMARKS
NASHVILLE      CLOUDY    49  30  48 CALM      30.20R                  
CLARKSVILLE    FAIR      46  32  58 S8        30.16R                  
SMYRNA         FAIR      44  35  70 SE3       30.21S                  
CROSSVILLE     FAIR      49  19  30 S6        30.24R                  
$$

TNZ061-075-076-078-094-096-097-241400-
SOUTH MIDDLE TENNESSEE
  
CITY           SKY/WX    TMP DP  RH WIND       PRES   REMARKS
FAYETTEVILLE   SUNNY     48  30  49 S6        30.21R                  
$$

TNZ017-018-042-046-047-241400-
NORTHEAST TENNESSEE
  
CITY           SKY/WX    TMP DP  RH WIND       PRES   REMARKS
TRI CITIES     PTSUNNY   38  25  59 CALM      30.30R                  
$$

TNZ012-013-036-069-073-074-241400-
CENTRAL EAST TENNESSEE
  
CITY           SKY/WX    TMP DP  RH WIND       PRES   REMARKS
KNOXVILLE      FAIR      41  29  62 E3        30.27R                  
OAK RIDGE      FAIR      40  31  70 CALM      30.30R                  
$$

TNZ083-085-099-241400-
SOUTHEAST TENNESSEE
  
CITY           SKY/WX    TMP DP  RH WIND       PRES   REMARKS
CHATTANOOGA    PTSUNNY   42  35  76 CALM      30.28R                  
$$

SKY/WX REPORTED AS FAIR MEANS FEW OR NO CLOUDS BELOW
12 THOUSAND FEET.